owner,sensor,date,latitude,longitude,vertical_datum,mass_concentration_of_oxygen_in_sea_water,qcFlag 
SCCF RECON,ioos:station:SCCF:13:1,2012-07-01T00:00:00Z,26.5255,-82.0032,2.21,6.62,1111122 
SCCF RECON,ioos:station:SCCF:13:1,2012-07-01T01:00:00Z,26.5255,-82.0032,2.33,6.61,1111122 
SCCF RECON,ioos:station:SCCF:13:1,2012-07-01T02:00:00Z,26.5255,-82.0032,2.41,5.87,1111122 
SCCF RECON,ioos:station:SCCF:13:1,2012-07-01T03:00:00Z,26.5255,-82.0032,2.46,6.14,1111122 
SCCF RECON,ioos:station:SCCF:13:1,2012-07-01T04:00:00Z,26.5255,-82.0032,2.53,6.33,1111122 
SCCF RECON,ioos:station:SCCF:13:1,2012-07-01T05:00:00Z,26.5255,-82.0032,2.57,6.25,1111122 
SCCF RECON,ioos:station:SCCF:13:1,2012-07-01T06:00:00Z,26.5255,-82.0032,2.56,6.46,1111122 
SCCF RECON,ioos:station:SCCF:13:1,2012-07-01T07:00:00Z,26.5255,-82.0032,2.53,6.2,1111122 
SCCF RECON,ioos:station:SCCF:13:1,2012-07-01T08:00:00Z,26.5255,-82.0032,2.49,5.55,1111122 
SCCF RECON,ioos:station:SCCF:13:1,2012-07-01T09:00:00Z,26.5255,-82.0032,2.441,5.59,1111122 
SCCF RECON,ioos:station:SCCF:13:1,2012-07-01T10:00:00Z,26.5255,-82.0032,2.45,5.14,1111122 
SCCF RECON,ioos:station:SCCF:13:1,2012-07-01T11:00:00Z,26.5255,-82.0032,2.542,5.07,1111122 
SCCF RECON,ioos:station:SCCF:13:1,2012-07-01T12:00:00Z,26.5255,-82.0032,2.66,4.85,1111122 
SCCF RECON,ioos:station:SCCF:13:1,2012-07-01T13:00:00Z,26.5255,-82.0032,2.74,5.68,1111122 
SCCF RECON,ioos:station:SCCF:13:1,2012-07-01T14:00:00Z,26.5255,-82.0032,2.796,6.04,1111122 
SCCF RECON,ioos:station:SCCF:13:1,2012-07-01T15:00:00Z,26.5255,-82.0032,2.836,5.87,1111122 
SCCF RECON,ioos:station:SCCF:13:1,2012-07-01T16:00:00Z,26.5255,-82.0032,2.837,5.92,1111122 
SCCF RECON,ioos:station:SCCF:13:1,2012-07-01T17:00:00Z,26.5255,-82.0032,2.76,6.0,1111122 
SCCF RECON,ioos:station:SCCF:13:1,2012-07-01T18:00:00Z,26.5255,-82.0032,2.64,5.68,1111122 
SCCF RECON,ioos:station:SCCF:13:1,2012-07-01T19:00:00Z,26.5255,-82.0032,2.525,6.07,1111122 
SCCF RECON,ioos:station:SCCF:13:1,2012-07-01T20:00:00Z,26.5255,-82.0032,2.429,6.35,1111122 
SCCF RECON,ioos:station:SCCF:13:1,2012-07-01T21:00:00Z,26.5255,-82.0032,2.32,6.47,1111122 
SCCF RECON,ioos:station:SCCF:13:1,2012-07-01T22:00:00Z,26.5255,-82.0032,2.216,6.44,1111122 
SCCF RECON,ioos:station:SCCF:13:1,2012-07-01T23:00:00Z,26.5255,-82.0032,2.13,6.46,1111122 
SCCF RECON,ioos:station:SCCF:13:1,2012-07-02T00:00:00Z,26.5255,-82.0032,2.1,6.08,1111122 
SCCF RECON,ioos:station:SCCF:13:1,2012-07-02T01:00:00Z,26.5255,-82.0032,2.18,5.96,1111122 
SCCF RECON,ioos:station:SCCF:13:1,2012-07-02T02:00:00Z,26.5255,-82.0032,2.3,6.08,1111122 
SCCF RECON,ioos:station:SCCF:13:1,2012-07-02T03:00:00Z,26.5255,-82.0032,2.385,5.56,1111122 
SCCF RECON,ioos:station:SCCF:13:1,2012-07-02T04:00:00Z,26.5255,-82.0032,2.46,5.44,1111122 
SCCF RECON,ioos:station:SCCF:13:1,2012-07-02T05:00:00Z,26.5255,-82.0032,2.52,5.77,1111122 
SCCF RECON,ioos:station:SCCF:13:1,2012-07-02T06:00:00Z,26.5255,-82.0032,2.533,5.71,1111122 
SCCF RECON,ioos:station:SCCF:13:1,2012-07-02T07:00:00Z,26.5255,-82.0032,2.501,5.59,1111122 
SCCF RECON,ioos:station:SCCF:13:1,2012-07-02T08:00:00Z,26.5255,-82.0032,2.453,5.18,1111122 
SCCF RECON,ioos:station:SCCF:13:1,2012-07-02T09:00:00Z,26.5255,-82.0032,2.4,5.29,1111122 
SCCF RECON,ioos:station:SCCF:13:1,2012-07-02T10:00:00Z,26.5255,-82.0032,2.35,4.73,1111122 
SCCF RECON,ioos:station:SCCF:13:1,2012-07-02T11:00:00Z,26.5255,-82.0032,2.362,4.51,1111122 
SCCF RECON,ioos:station:SCCF:13:1,2012-07-02T12:00:00Z,26.5255,-82.0032,2.48,4.37,1111122 
SCCF RECON,ioos:station:SCCF:13:1,2012-07-02T13:00:00Z,26.5255,-82.0032,2.62,4.13,1111122 
SCCF RECON,ioos:station:SCCF:13:1,2012-07-02T14:00:00Z,26.5255,-82.0032,2.71,5.17,1111122 
SCCF RECON,ioos:station:SCCF:13:1,2012-07-02T15:00:00Z,26.5255,-82.0032,2.74,5.73,1111122 
SCCF RECON,ioos:station:SCCF:13:1,2012-07-02T16:00:00Z,26.5255,-82.0032,2.776,5.75,1111122 
SCCF RECON,ioos:station:SCCF:13:1,2012-07-02T17:00:00Z,26.5255,-82.0032,2.79,6.04,1111122 
SCCF RECON,ioos:station:SCCF:13:1,2012-07-02T18:00:00Z,26.5255,-82.0032,2.75,6.14,1111122 
SCCF RECON,ioos:station:SCCF:13:1,2012-07-02T19:00:00Z,26.5255,-82.0032,2.6,6.47,1111122 
SCCF RECON,ioos:station:SCCF:13:1,2012-07-02T20:00:00Z,26.5255,-82.0032,2.466,6.18,1111122 
SCCF RECON,ioos:station:SCCF:13:1,2012-07-02T21:00:00Z,26.5255,-82.0032,2.37,6.39,1111122 
SCCF RECON,ioos:station:SCCF:13:1,2012-07-02T22:00:00Z,26.5255,-82.0032,2.27,6.36,1111122 
SCCF RECON,ioos:station:SCCF:13:1,2012-07-02T23:00:00Z,26.5255,-82.0032,2.178,6.28,1111122 
SCCF RECON,ioos:station:SCCF:13:1,2012-07-03T00:00:00Z,26.5255,-82.0032,2.119,6.05,1111122 
SCCF RECON,ioos:station:SCCF:13:1,2012-07-03T01:00:00Z,26.5255,-82.0032,2.11,5.61,1111122 
SCCF RECON,ioos:station:SCCF:13:1,2012-07-03T02:00:00Z,26.5255,-82.0032,2.219,5.44,1111122 
SCCF RECON,ioos:station:SCCF:13:1,2012-07-03T03:00:00Z,26.5255,-82.0032,2.35,5.49,1111122 
SCCF RECON,ioos:station:SCCF:13:1,2012-07-03T04:00:00Z,26.5255,-82.0032,2.42,4.4,1111122 
SCCF RECON,ioos:station:SCCF:13:1,2012-07-03T05:00:00Z,26.5255,-82.0032,2.49,5.22,1111122 
SCCF RECON,ioos:station:SCCF:13:1,2012-07-03T06:00:00Z,26.5255,-82.0032,2.532,5.54,1111122 
SCCF RECON,ioos:station:SCCF:13:1,2012-07-03T07:00:00Z,26.5255,-82.0032,2.548,5.81,1111122 
SCCF RECON,ioos:station:SCCF:13:1,2012-07-03T08:00:00Z,26.5255,-82.0032,2.5,5.63,1111122 
SCCF RECON,ioos:station:SCCF:13:1,2012-07-03T09:00:00Z,26.5255,-82.0032,2.45,5.5,1111122 
SCCF RECON,ioos:station:SCCF:13:1,2012-07-03T10:00:00Z,26.5255,-82.0032,2.425,5.1,1111122 
SCCF RECON,ioos:station:SCCF:13:1,2012-07-03T11:00:00Z,26.5255,-82.0032,2.37,4.75,1111122 
SCCF RECON,ioos:station:SCCF:13:1,2012-07-03T12:00:00Z,26.5255,-82.0032,2.41,4.22,1111122 
SCCF RECON,ioos:station:SCCF:13:1,2012-07-03T13:00:00Z,26.5255,-82.0032,2.55,3.78,1111122 
SCCF RECON,ioos:station:SCCF:13:1,2012-07-03T14:00:00Z,26.5255,-82.0032,2.65,5.09,1111122 
SCCF RECON,ioos:station:SCCF:13:1,2012-07-03T15:00:00Z,26.5255,-82.0032,2.73,5.66,1111122 
SCCF RECON,ioos:station:SCCF:13:1,2012-07-03T16:00:00Z,26.5255,-82.0032,2.8,5.89,1111122 
SCCF RECON,ioos:station:SCCF:13:1,2012-07-03T17:00:00Z,26.5255,-82.0032,2.841,5.97,1111122 
SCCF RECON,ioos:station:SCCF:13:1,2012-07-03T18:00:00Z,26.5255,-82.0032,2.85,6.3,1111122 
SCCF RECON,ioos:station:SCCF:13:1,2012-07-03T19:00:00Z,26.5255,-82.0032,2.77,6.4,1111122 
SCCF RECON,ioos:station:SCCF:13:1,2012-07-03T20:00:00Z,26.5255,-82.0032,2.62,6.5,1111122 
SCCF RECON,ioos:station:SCCF:13:1,2012-07-03T21:00:00Z,26.5255,-82.0032,2.497,6.29,1111122 
SCCF RECON,ioos:station:SCCF:13:1,2012-07-03T22:00:00Z,26.5255,-82.0032,2.39,6.15,1111122 
SCCF RECON,ioos:station:SCCF:13:1,2012-07-03T23:00:00Z,26.5255,-82.0032,2.29,5.99,1111122 
SCCF RECON,ioos:station:SCCF:13:1,2012-07-04T00:00:00Z,26.5255,-82.0032,2.2,5.96,1111122 
SCCF RECON,ioos:station:SCCF:13:1,2012-07-04T01:00:00Z,26.5255,-82.0032,2.14,5.67,1111122 
SCCF RECON,ioos:station:SCCF:13:1,2012-07-04T02:00:00Z,26.5255,-82.0032,2.139,5.4,1111122 
SCCF RECON,ioos:station:SCCF:13:1,2012-07-04T03:00:00Z,26.5255,-82.0032,2.29,5.26,1111122 
SCCF RECON,ioos:station:SCCF:13:1,2012-07-04T04:00:00Z,26.5255,-82.0032,2.39,5.2,1111122 
SCCF RECON,ioos:station:SCCF:13:1,2012-07-04T05:00:00Z,26.5255,-82.0032,2.47,4.44,1111122 
SCCF RECON,ioos:station:SCCF:13:1,2012-07-04T06:00:00Z,26.5255,-82.0032,2.525,4.66,1111122 
SCCF RECON,ioos:station:SCCF:13:1,2012-07-04T07:00:00Z,26.5255,-82.0032,2.6,4.97,1111122 
SCCF RECON,ioos:station:SCCF:13:1,2012-07-04T08:00:00Z,26.5255,-82.0032,2.53,5.2,1111122 
SCCF RECON,ioos:station:SCCF:13:1,2012-07-04T09:00:00Z,26.5255,-82.0032,2.49,5.03,1111122 
SCCF RECON,ioos:station:SCCF:13:1,2012-07-04T10:00:00Z,26.5255,-82.0032,2.45,4.92,1111122 
SCCF RECON,ioos:station:SCCF:13:1,2012-07-04T11:00:00Z,26.5255,-82.0032,2.42,4.64,1111122 
SCCF RECON,ioos:station:SCCF:13:1,2012-07-04T12:00:00Z,26.5255,-82.0032,2.4,3.92,1111122 
SCCF RECON,ioos:station:SCCF:13:1,2012-07-04T13:00:00Z,26.5255,-82.0032,2.44,3.98,1111122 
SCCF RECON,ioos:station:SCCF:13:1,2012-07-04T14:00:00Z,26.5255,-82.0032,2.569,2.85,1111122 
SCCF RECON,ioos:station:SCCF:13:1,2012-07-04T15:00:00Z,26.5255,-82.0032,2.693,4.85,1111122 
SCCF RECON,ioos:station:SCCF:13:1,2012-07-04T16:00:00Z,26.5255,-82.0032,2.78,5.4,1111122 
SCCF RECON,ioos:station:SCCF:13:1,2012-07-04T17:00:00Z,26.5255,-82.0032,2.82,5.8,1111122 
SCCF RECON,ioos:station:SCCF:13:1,2012-07-04T18:00:00Z,26.5255,-82.0032,2.859,6.03,1111122 
SCCF RECON,ioos:station:SCCF:13:1,2012-07-04T19:00:00Z,26.5255,-82.0032,2.839,6.21,1111122 
SCCF RECON,ioos:station:SCCF:13:1,2012-07-04T20:00:00Z,26.5255,-82.0032,2.738,5.93,1111122 
SCCF RECON,ioos:station:SCCF:13:1,2012-07-04T21:00:00Z,26.5255,-82.0032,2.612,6.05,1111122 
SCCF RECON,ioos:station:SCCF:13:1,2012-07-04T22:00:00Z,26.5255,-82.0032,2.5,5.87,1111122 
SCCF RECON,ioos:station:SCCF:13:1,2012-07-04T23:00:00Z,26.5255,-82.0032,2.399,6.0,1111122 
SCCF RECON,ioos:station:SCCF:13:1,2012-07-05T00:00:00Z,26.5255,-82.0032,2.3,5.97,1111122 
SCCF RECON,ioos:station:SCCF:13:1,2012-07-05T01:00:00Z,26.5255,-82.0032,2.207,5.5,1111122 
SCCF RECON,ioos:station:SCCF:13:1,2012-07-05T02:00:00Z,26.5255,-82.0032,2.155,5.01,1111122 
SCCF RECON,ioos:station:SCCF:13:1,2012-07-05T03:00:00Z,26.5255,-82.0032,2.219,4.81,1111122 
SCCF RECON,ioos:station:SCCF:13:1,2012-07-05T04:00:00Z,26.5255,-82.0032,2.37,4.78,1111122 
SCCF RECON,ioos:station:SCCF:13:1,2012-07-05T05:00:00Z,26.5255,-82.0032,2.4,4.5,1111122 
SCCF RECON,ioos:station:SCCF:13:1,2012-07-05T06:00:00Z,26.5255,-82.0032,2.48,3.98,1111122 
SCCF RECON,ioos:station:SCCF:13:1,2012-07-05T07:00:00Z,26.5255,-82.0032,2.54,4.57,1111122 
SCCF RECON,ioos:station:SCCF:13:1,2012-07-05T08:00:00Z,26.5255,-82.0032,2.55,4.8,1111122 
SCCF RECON,ioos:station:SCCF:13:1,2012-07-05T09:00:00Z,26.5255,-82.0032,2.55,4.95,1111122 
SCCF RECON,ioos:station:SCCF:13:1,2012-07-05T10:00:00Z,26.5255,-82.0032,2.51,4.72,1111122 
SCCF RECON,ioos:station:SCCF:13:1,2012-07-05T11:00:00Z,26.5255,-82.0032,2.44,4.62,1111122 
SCCF RECON,ioos:station:SCCF:13:1,2012-07-05T12:00:00Z,26.5255,-82.0032,2.4,4.03,1111122 
SCCF RECON,ioos:station:SCCF:13:1,2012-07-05T13:00:00Z,26.5255,-82.0032,2.39,3.86,1111122 
SCCF RECON,ioos:station:SCCF:13:1,2012-07-05T14:00:00Z,26.5255,-82.0032,2.44,4.04,1111122 
SCCF RECON,ioos:station:SCCF:13:1,2012-07-05T15:00:00Z,26.5255,-82.0032,2.56,3.35,1111122 
SCCF RECON,ioos:station:SCCF:13:1,2012-07-05T16:00:00Z,26.5255,-82.0032,2.67,4.82,1111122 
SCCF RECON,ioos:station:SCCF:13:1,2012-07-05T17:00:00Z,26.5255,-82.0032,2.736,5.34,1111122 
SCCF RECON,ioos:station:SCCF:13:1,2012-07-05T18:00:00Z,26.5255,-82.0032,2.78,5.98,1111122 
SCCF RECON,ioos:station:SCCF:13:1,2012-07-05T19:00:00Z,26.5255,-82.0032,2.81,6.28,1111122 
SCCF RECON,ioos:station:SCCF:13:1,2012-07-05T20:00:00Z,26.5255,-82.0032,2.83,6.04,1111122 
SCCF RECON,ioos:station:SCCF:13:1,2012-07-05T21:00:00Z,26.5255,-82.0032,2.7,6.0,1111122 
SCCF RECON,ioos:station:SCCF:13:1,2012-07-05T22:00:00Z,26.5255,-82.0032,2.562,6.06,1111122 
SCCF RECON,ioos:station:SCCF:13:1,2012-07-05T23:00:00Z,26.5255,-82.0032,2.46,5.73,1111122 
SCCF RECON,ioos:station:SCCF:13:1,2012-07-06T00:00:00Z,26.5255,-82.0032,2.371,5.9,1111122 
SCCF RECON,ioos:station:SCCF:13:1,2012-07-06T01:00:00Z,26.5255,-82.0032,2.28,5.89,1111122 
SCCF RECON,ioos:station:SCCF:13:1,2012-07-06T02:00:00Z,26.5255,-82.0032,2.195,5.5,1111122 
SCCF RECON,ioos:station:SCCF:13:1,2012-07-06T03:00:00Z,26.5255,-82.0032,2.17,5.16,1111122 
SCCF RECON,ioos:station:SCCF:13:1,2012-07-06T04:00:00Z,26.5255,-82.0032,2.27,4.93,1111122 
SCCF RECON,ioos:station:SCCF:13:1,2012-07-06T05:00:00Z,26.5255,-82.0032,2.42,4.91,1111122 
SCCF RECON,ioos:station:SCCF:13:1,2012-07-06T06:00:00Z,26.5255,-82.0032,2.499,4.45,1111122 
SCCF RECON,ioos:station:SCCF:13:1,2012-07-06T07:00:00Z,26.5255,-82.0032,2.53,4.72,1111122 
SCCF RECON,ioos:station:SCCF:13:1,2012-07-06T08:00:00Z,26.5255,-82.0032,2.577,4.73,1111122 
SCCF RECON,ioos:station:SCCF:13:1,2012-07-06T09:00:00Z,26.5255,-82.0032,2.58,4.87,1111122 
SCCF RECON,ioos:station:SCCF:13:1,2012-07-06T10:00:00Z,26.5255,-82.0032,2.527,4.81,1111122 
SCCF RECON,ioos:station:SCCF:13:1,2012-07-06T11:00:00Z,26.5255,-82.0032,2.474,4.51,1111122 
SCCF RECON,ioos:station:SCCF:13:1,2012-07-06T12:00:00Z,26.5255,-82.0032,2.406,4.05,1111122 
SCCF RECON,ioos:station:SCCF:13:1,2012-07-06T13:00:00Z,26.5255,-82.0032,2.35,4.09,1111122 
SCCF RECON,ioos:station:SCCF:13:1,2012-07-06T14:00:00Z,26.5255,-82.0032,2.33,4.32,1111122 
SCCF RECON,ioos:station:SCCF:13:1,2012-07-06T15:00:00Z,26.5255,-82.0032,2.38,4.58,1111122 
SCCF RECON,ioos:station:SCCF:13:1,2012-07-06T16:00:00Z,26.5255,-82.0032,2.506,3.8,1111122 
SCCF RECON,ioos:station:SCCF:13:1,2012-07-06T17:00:00Z,26.5255,-82.0032,2.611,4.67,1111122 
SCCF RECON,ioos:station:SCCF:13:1,2012-07-06T18:00:00Z,26.5255,-82.0032,2.68,5.36,1111122 
SCCF RECON,ioos:station:SCCF:13:1,2012-07-06T19:00:00Z,26.5255,-82.0032,2.737,6.24,1111122 
SCCF RECON,ioos:station:SCCF:13:1,2012-07-06T20:00:00Z,26.5255,-82.0032,2.809,6.29,1111122 
SCCF RECON,ioos:station:SCCF:13:1,2012-07-06T21:00:00Z,26.5255,-82.0032,2.71,6.01,1111122 
SCCF RECON,ioos:station:SCCF:13:1,2012-07-06T22:00:00Z,26.5255,-82.0032,2.596,5.83,1111122 
SCCF RECON,ioos:station:SCCF:13:1,2012-07-06T23:00:00Z,26.5255,-82.0032,2.49,5.46,1111122 
SCCF RECON,ioos:station:SCCF:13:1,2012-07-07T00:00:00Z,26.5255,-82.0032,2.413,5.71,1111122 
SCCF RECON,ioos:station:SCCF:13:1,2012-07-07T01:00:00Z,26.5255,-82.0032,2.325,5.71,1111122 
SCCF RECON,ioos:station:SCCF:13:1,2012-07-07T02:00:00Z,26.5255,-82.0032,2.243,5.61,1111122 
SCCF RECON,ioos:station:SCCF:13:1,2012-07-07T03:00:00Z,26.5255,-82.0032,2.18,5.15,1111122 
SCCF RECON,ioos:station:SCCF:13:1,2012-07-07T04:00:00Z,26.5255,-82.0032,2.18,5.01,1111122 
SCCF RECON,ioos:station:SCCF:13:1,2012-07-07T05:00:00Z,26.5255,-82.0032,2.34,4.9,1111122 
SCCF RECON,ioos:station:SCCF:13:1,2012-07-07T06:00:00Z,26.5255,-82.0032,2.47,4.34,1111122 
SCCF RECON,ioos:station:SCCF:13:1,2012-07-07T07:00:00Z,26.5255,-82.0032,2.5,4.43,1111122 
SCCF RECON,ioos:station:SCCF:13:1,2012-07-07T08:00:00Z,26.5255,-82.0032,2.54,4.52,1111122 
SCCF RECON,ioos:station:SCCF:13:1,2012-07-07T09:00:00Z,26.5255,-82.0032,2.577,4.59,1111122 
SCCF RECON,ioos:station:SCCF:13:1,2012-07-07T10:00:00Z,26.5255,-82.0032,2.55,4.68,1111122 
SCCF RECON,ioos:station:SCCF:13:1,2012-07-07T11:00:00Z,26.5255,-82.0032,2.49,4.43,1111122 
SCCF RECON,ioos:station:SCCF:13:1,2012-07-07T12:00:00Z,26.5255,-82.0032,2.42,4.31,1111122 
SCCF RECON,ioos:station:SCCF:13:1,2012-07-07T13:00:00Z,26.5255,-82.0032,2.38,3.93,1111122 
SCCF RECON,ioos:station:SCCF:13:1,2012-07-07T14:00:00Z,26.5255,-82.0032,2.34,4.25,1111122 
SCCF RECON,ioos:station:SCCF:13:1,2012-07-07T15:00:00Z,26.5255,-82.0032,2.3,4.47,1111122 
SCCF RECON,ioos:station:SCCF:13:1,2012-07-07T16:00:00Z,26.5255,-82.0032,2.367,4.96,1111122 
SCCF RECON,ioos:station:SCCF:13:1,2012-07-07T17:00:00Z,26.5255,-82.0032,2.499,4.34,1111122 
SCCF RECON,ioos:station:SCCF:13:1,2012-07-07T18:00:00Z,26.5255,-82.0032,2.59,5.23,1111122 
SCCF RECON,ioos:station:SCCF:13:1,2012-07-07T19:00:00Z,26.5255,-82.0032,2.65,5.63,1111122 
SCCF RECON,ioos:station:SCCF:13:1,2012-07-07T20:00:00Z,26.5255,-82.0032,2.682,6.2,1111122 
SCCF RECON,ioos:station:SCCF:13:1,2012-07-07T21:00:00Z,26.5255,-82.0032,2.69,6.83,1111122 
SCCF RECON,ioos:station:SCCF:13:1,2012-07-07T22:00:00Z,26.5255,-82.0032,2.647,6.96,1111122 
SCCF RECON,ioos:station:SCCF:13:1,2012-07-07T23:00:00Z,26.5255,-82.0032,2.56,6.49,1111122 
SCCF RECON,ioos:station:SCCF:13:1,2012-07-08T00:00:00Z,26.5255,-82.0032,2.464,5.85,1111122 
SCCF RECON,ioos:station:SCCF:13:1,2012-07-08T01:00:00Z,26.5255,-82.0032,2.39,5.88,1111122 
SCCF RECON,ioos:station:SCCF:13:1,2012-07-08T02:00:00Z,26.5255,-82.0032,2.34,5.85,1111122 
SCCF RECON,ioos:station:SCCF:13:1,2012-07-08T03:00:00Z,26.5255,-82.0032,2.27,5.82,1111122 
SCCF RECON,ioos:station:SCCF:13:1,2012-07-08T04:00:00Z,26.5255,-82.0032,2.22,5.57,1111122 
SCCF RECON,ioos:station:SCCF:13:1,2012-07-08T05:00:00Z,26.5255,-82.0032,2.312,5.44,1111122 
SCCF RECON,ioos:station:SCCF:13:1,2012-07-08T06:00:00Z,26.5255,-82.0032,2.44,5.22,1111122 
SCCF RECON,ioos:station:SCCF:13:1,2012-07-08T07:00:00Z,26.5255,-82.0032,2.52,4.54,1111122 
SCCF RECON,ioos:station:SCCF:13:1,2012-07-08T08:00:00Z,26.5255,-82.0032,2.569,4.8,1111122 
SCCF RECON,ioos:station:SCCF:13:1,2012-07-08T09:00:00Z,26.5255,-82.0032,2.6,4.93,1111122 
SCCF RECON,ioos:station:SCCF:13:1,2012-07-08T10:00:00Z,26.5255,-82.0032,2.61,5.13,1111122 
SCCF RECON,ioos:station:SCCF:13:1,2012-07-08T11:00:00Z,26.5255,-82.0032,2.58,5.05,1111122 
SCCF RECON,ioos:station:SCCF:13:1,2012-07-08T12:00:00Z,26.5255,-82.0032,2.501,4.83,1111122 
SCCF RECON,ioos:station:SCCF:13:1,2012-07-08T13:00:00Z,26.5255,-82.0032,2.42,4.42,1111122 
SCCF RECON,ioos:station:SCCF:13:1,2012-07-08T14:00:00Z,26.5255,-82.0032,2.36,4.58,1111122 
SCCF RECON,ioos:station:SCCF:13:1,2012-07-08T15:00:00Z,26.5255,-82.0032,2.31,4.74,1111122 
SCCF RECON,ioos:station:SCCF:13:1,2012-07-08T16:00:00Z,26.5255,-82.0032,2.271,5.05,1111122 
SCCF RECON,ioos:station:SCCF:13:1,2012-07-08T17:00:00Z,26.5255,-82.0032,2.301,5.57,1111122 
SCCF RECON,ioos:station:SCCF:13:1,2012-07-08T18:00:00Z,26.5255,-82.0032,2.428,5.88,1111122 
SCCF RECON,ioos:station:SCCF:13:1,2012-07-08T19:00:00Z,26.5255,-82.0032,2.508,5.87,1111122 
SCCF RECON,ioos:station:SCCF:13:1,2012-07-08T20:00:00Z,26.5255,-82.0032,2.534,5.51,1111122 
SCCF RECON,ioos:station:SCCF:13:1,2012-07-08T21:00:00Z,26.5255,-82.0032,2.55,6.02,1111122 
SCCF RECON,ioos:station:SCCF:13:1,2012-07-08T22:00:00Z,26.5255,-82.0032,2.55,6.47,1111122 
SCCF RECON,ioos:station:SCCF:13:1,2012-07-08T23:00:00Z,26.5255,-82.0032,2.54,6.8,1111122 
SCCF RECON,ioos:station:SCCF:13:1,2012-07-09T00:00:00Z,26.5255,-82.0032,2.5,6.43,1111122 
SCCF RECON,ioos:station:SCCF:13:1,2012-07-09T01:00:00Z,26.5255,-82.0032,2.412,6.44,1111122 
SCCF RECON,ioos:station:SCCF:13:1,2012-07-09T02:00:00Z,26.5255,-82.0032,2.321,5.7,1111122 
SCCF RECON,ioos:station:SCCF:13:1,2012-07-09T03:00:00Z,26.5255,-82.0032,2.28,5.89,1111122 
SCCF RECON,ioos:station:SCCF:13:1,2012-07-09T04:00:00Z,26.5255,-82.0032,2.221,5.75,1111122 
SCCF RECON,ioos:station:SCCF:13:1,2012-07-09T05:00:00Z,26.5255,-82.0032,2.21,5.79,1111122 
SCCF RECON,ioos:station:SCCF:13:1,2012-07-09T06:00:00Z,26.5255,-82.0032,2.25,5.88,1111122 
SCCF RECON,ioos:station:SCCF:13:1,2012-07-09T07:00:00Z,26.5255,-82.0032,2.44,5.19,1111122 
SCCF RECON,ioos:station:SCCF:13:1,2012-07-09T08:00:00Z,26.5255,-82.0032,2.51,4.73,1111122 
SCCF RECON,ioos:station:SCCF:13:1,2012-07-09T09:00:00Z,26.5255,-82.0032,2.549,4.85,1111122 
SCCF RECON,ioos:station:SCCF:13:1,2012-07-09T10:00:00Z,26.5255,-82.0032,2.6,5.23,1111122 
SCCF RECON,ioos:station:SCCF:13:1,2012-07-09T11:00:00Z,26.5255,-82.0032,2.61,5.22,1111122 
SCCF RECON,ioos:station:SCCF:13:1,2012-07-09T12:00:00Z,26.5255,-82.0032,2.56,5.21,1111122 
SCCF RECON,ioos:station:SCCF:13:1,2012-07-09T13:00:00Z,26.5255,-82.0032,2.476,4.96,1111122 
SCCF RECON,ioos:station:SCCF:13:1,2012-07-09T14:00:00Z,26.5255,-82.0032,2.39,4.75,1111122 
SCCF RECON,ioos:station:SCCF:13:1,2012-07-09T15:00:00Z,26.5255,-82.0032,2.349,5.09,1111122 
SCCF RECON,ioos:station:SCCF:13:1,2012-07-09T16:00:00Z,26.5255,-82.0032,2.306,5.45,1111122 
SCCF RECON,ioos:station:SCCF:13:1,2012-07-09T17:00:00Z,26.5255,-82.0032,2.264,5.82,1111122 
SCCF RECON,ioos:station:SCCF:13:1,2012-07-09T18:00:00Z,26.5255,-82.0032,2.302,6.28,1111122 
SCCF RECON,ioos:station:SCCF:13:1,2012-07-09T19:00:00Z,26.5255,-82.0032,2.4,5.96,1111122 
SCCF RECON,ioos:station:SCCF:13:1,2012-07-09T20:00:00Z,26.5255,-82.0032,2.48,6.34,1111122 
SCCF RECON,ioos:station:SCCF:13:1,2012-07-09T21:00:00Z,26.5255,-82.0032,2.48,6.02,1111122 
SCCF RECON,ioos:station:SCCF:13:1,2012-07-09T22:00:00Z,26.5255,-82.0032,2.49,6.49,1111122 
SCCF RECON,ioos:station:SCCF:13:1,2012-07-09T23:00:00Z,26.5255,-82.0032,2.51,5.76,1111122 
SCCF RECON,ioos:station:SCCF:13:1,2012-07-10T00:00:00Z,26.5255,-82.0032,2.51,5.58,1111122 
SCCF RECON,ioos:station:SCCF:13:1,2012-07-10T01:00:00Z,26.5255,-82.0032,2.47,5.54,1111122 
SCCF RECON,ioos:station:SCCF:13:1,2012-07-10T02:00:00Z,26.5255,-82.0032,2.409,5.45,1111122 
SCCF RECON,ioos:station:SCCF:13:1,2012-07-10T03:00:00Z,26.5255,-82.0032,2.33,5.29,1111122 
SCCF RECON,ioos:station:SCCF:13:1,2012-07-10T04:00:00Z,26.5255,-82.0032,2.29,5.37,1111122 
SCCF RECON,ioos:station:SCCF:13:1,2012-07-10T05:00:00Z,26.5255,-82.0032,2.27,5.32,1111122 
SCCF RECON,ioos:station:SCCF:13:1,2012-07-10T06:00:00Z,26.5255,-82.0032,2.33,5.59,1111122 
SCCF RECON,ioos:station:SCCF:13:1,2012-07-10T07:00:00Z,26.5255,-82.0032,2.37,4.61,1111122 
SCCF RECON,ioos:station:SCCF:13:1,2012-07-10T08:00:00Z,26.5255,-82.0032,2.45,4.16,1111122 
SCCF RECON,ioos:station:SCCF:13:1,2012-07-10T09:00:00Z,26.5255,-82.0032,2.51,4.33,1111122 
SCCF RECON,ioos:station:SCCF:13:1,2012-07-10T10:00:00Z,26.5255,-82.0032,2.549,4.75,1111122 
SCCF RECON,ioos:station:SCCF:13:1,2012-07-10T11:00:00Z,26.5255,-82.0032,2.569,4.91,1111122 
SCCF RECON,ioos:station:SCCF:13:1,2012-07-10T12:00:00Z,26.5255,-82.0032,2.55,4.77,1111122 
SCCF RECON,ioos:station:SCCF:13:1,2012-07-10T13:00:00Z,26.5255,-82.0032,2.502,4.48,1111122 
SCCF RECON,ioos:station:SCCF:13:1,2012-07-10T14:00:00Z,26.5255,-82.0032,2.44,4.57,1111122 
SCCF RECON,ioos:station:SCCF:13:1,2012-07-10T15:00:00Z,26.5255,-82.0032,2.38,4.26,1111122 
SCCF RECON,ioos:station:SCCF:13:1,2012-07-10T16:00:00Z,26.5255,-82.0032,2.29,5.23,1111122 
SCCF RECON,ioos:station:SCCF:13:1,2012-07-10T17:00:00Z,26.5255,-82.0032,2.24,5.24,1111122 
SCCF RECON,ioos:station:SCCF:13:1,2012-07-10T18:00:00Z,26.5255,-82.0032,2.178,5.74,1111122 
SCCF RECON,ioos:station:SCCF:13:1,2012-07-10T19:00:00Z,26.5255,-82.0032,2.22,6.1,1111122 
SCCF RECON,ioos:station:SCCF:13:1,2012-07-10T20:00:00Z,26.5255,-82.0032,2.331,6.24,1111122 
SCCF RECON,ioos:station:SCCF:13:1,2012-07-10T21:00:00Z,26.5255,-82.0032,2.365,6.31,1111122 
SCCF RECON,ioos:station:SCCF:13:1,2012-07-10T22:00:00Z,26.5255,-82.0032,2.459,6.11,1111122 
SCCF RECON,ioos:station:SCCF:13:1,2012-07-10T23:00:00Z,26.5255,-82.0032,2.484,5.62,1111122 
SCCF RECON,ioos:station:SCCF:13:1,2012-07-11T00:00:00Z,26.5255,-82.0032,2.492,5.77,1111122 
SCCF RECON,ioos:station:SCCF:13:1,2012-07-11T01:00:00Z,26.5255,-82.0032,2.44,5.5,1111122 
SCCF RECON,ioos:station:SCCF:13:1,2012-07-11T02:00:00Z,26.5255,-82.0032,2.4,5.41,1111122 
SCCF RECON,ioos:station:SCCF:13:1,2012-07-11T03:00:00Z,26.5255,-82.0032,2.35,4.97,1111122 
SCCF RECON,ioos:station:SCCF:13:1,2012-07-11T04:00:00Z,26.5255,-82.0032,2.3,4.96,1111122 
SCCF RECON,ioos:station:SCCF:13:1,2012-07-11T05:00:00Z,26.5255,-82.0032,2.272,5.32,1111122 
SCCF RECON,ioos:station:SCCF:13:1,2012-07-11T06:00:00Z,26.5255,-82.0032,2.279,5.41,1111122 
SCCF RECON,ioos:station:SCCF:13:1,2012-07-11T07:00:00Z,26.5255,-82.0032,2.34,5.43,1111122 
SCCF RECON,ioos:station:SCCF:13:1,2012-07-11T08:00:00Z,26.5255,-82.0032,2.41,4.43,1111122 
SCCF RECON,ioos:station:SCCF:13:1,2012-07-11T09:00:00Z,26.5255,-82.0032,2.47,4.36,1111122 
SCCF RECON,ioos:station:SCCF:13:1,2012-07-11T10:00:00Z,26.5255,-82.0032,2.526,4.68,1111122 
SCCF RECON,ioos:station:SCCF:13:1,2012-07-11T11:00:00Z,26.5255,-82.0032,2.576,4.83,1111122 
SCCF RECON,ioos:station:SCCF:13:1,2012-07-11T12:00:00Z,26.5255,-82.0032,2.61,4.76,1111122 
SCCF RECON,ioos:station:SCCF:13:1,2012-07-11T13:00:00Z,26.5255,-82.0032,2.619,4.64,1111122 
SCCF RECON,ioos:station:SCCF:13:1,2012-07-11T14:00:00Z,26.5255,-82.0032,2.51,4.63,1111122 
SCCF RECON,ioos:station:SCCF:13:1,2012-07-11T15:00:00Z,26.5255,-82.0032,2.42,4.78,1111122 
SCCF RECON,ioos:station:SCCF:13:1,2012-07-11T16:00:00Z,26.5255,-82.0032,2.333,5.1,1111122 
SCCF RECON,ioos:station:SCCF:13:1,2012-07-11T17:00:00Z,26.5255,-82.0032,2.279,5.57,1111122 
SCCF RECON,ioos:station:SCCF:13:1,2012-07-11T18:00:00Z,26.5255,-82.0032,2.22,5.73,1111122 
SCCF RECON,ioos:station:SCCF:13:1,2012-07-11T19:00:00Z,26.5255,-82.0032,2.22,6.13,1111122 
SCCF RECON,ioos:station:SCCF:13:1,2012-07-11T20:00:00Z,26.5255,-82.0032,2.2,6.21,1111122 
SCCF RECON,ioos:station:SCCF:13:1,2012-07-11T21:00:00Z,26.5255,-82.0032,2.26,6.11,1111122 